EDT,Max TemperatureF,Mean TemperatureF,Min TemperatureF,Max Dew PointF,MeanDew PointF,Min DewpointF,Max Humidity, Mean Humidity, Min Humidity, Max Sea Level PressureIn, Mean Sea Level PressureIn, Min Sea Level PressureIn, Max VisibilityMiles, Mean VisibilityMiles, Min VisibilityMiles, Max Wind SpeedMPH, Mean Wind SpeedMPH, Max Gust SpeedMPH,PrecipitationIn, CloudCover, Events, WindDirDegrees
2013-9-1,74,68,61,68,64,58,100,92,71,29.89,29.80,29.73,10,9,4,17,5,23,0.00,3,Rain,170
2013-9-2,60,58,55,58,52,49,92,83,72,29.96,29.90,29.82,10,10,4,18,13,28,0.00,8,Rain,314
2013-9-3,68,63,58,58,54,51,85,74,59,30.05,29.99,29.95,10,10,10,17,12,25,0.00,1,,283
2013-9-4,65,60,55,61,55,43,99,78,59,30.19,30.07,29.95,10,10,10,13,8,18,0.00,2,,318
2013-9-5,60,54,47,48,44,39,95,66,53,30.35,30.29,30.19,10,10,10,14,7,22,0.00,0,,11
2013-9-6,73,60,46,62,53,45,97,74,56,30.27,30.15,29.99,10,10,7,13,4,18,0.00,1,Rain,196
2013-9-7,76,70,65,70,66,55,99,88,64,30.05,29.94,29.89,10,9,1,16,9,24,0.00,7,Rain,253
2013-9-8,68,62,56,64,54,51,92,75,54,30.19,30.13,30.05,10,10,10,14,9,25,0.00,0,,72
2013-9-9,73,64,55,70,60,52,98,85,76,30.07,29.94,29.76,10,9,7,10,6,16,0.00,4,Rain,146
2013-9-10,84,76,67,72,69,67,99,75,60,29.99,29.85,29.74,10,10,4,16,9,23,0.00,2,Rain,240
2013-9-11,75,70,65,69,66,64,100,90,76,30.00,29.97,29.92,10,10,5,15,8,20,0.00,3,Rain,228
2013-9-12,67,60,52,63,53,44,94,78,63,30.10,30.01,29.94,10,10,5,20,11,30,0.00,6,Rain,332
2013-9-13,55,52,45,49,42,38,88,68,53,30.22,30.17,30.09,10,10,7,18,13,28,0.00,4,Rain,358
2013-9-14,65,54,42,53,48,41,99,80,64,30.17,30.12,30.03,10,10,10,17,5,23,0.00,1,,202
2013-9-15,60,56,53,58,54,45,100,90,74,30.23,30.07,30.00,10,9,2,20,8,29,0.00,7,Rain,270
2013-9-16,54,48,42,45,40,36,89,72,52,30.45,30.39,30.24,10,10,10,14,9,21,0.00,3,,33
2013-9-17,63,52,40,49,44,39,97,78,49,30.43,30.35,30.20,10,10,10,9,5,,0.00,0,,149
2013-9-18,70,58,46,58,52,45,96,75,59,30.20,30.07,29.97,10,10,7,9,5,17,0.00,4,,156
2013-9-19,78,70,63,69,64,56,97,80,67,29.97,29.90,29.78,10,10,3,23,8,34,0.00,4,Rain,177
2013-9-20,70,64,59,68,65,56,99,94,85,29.79,29.72,29.69,10,9,3,15,9,23,0.00,6,Rain,217
2013-9-21,59,54,49,55,47,39,95,76,64,29.94,29.82,29.75,10,10,7,20,12,28,0.00,7,Rain,330
2013-9-22,53,50,45,42,39,36,83,68,61,30.14,30.06,29.94,10,10,10,14,10,22,0.00,7,Rain,9
2013-9-23,58,48,39,47,43,39,100,83,57,30.23,30.18,30.14,10,10,5,9,4,,0.00,0,,123
2013-9-24,61,52,42,53,48,42,100,85,61,30.19,30.13,30.04,10,10,10,9,4,,0.00,0,,94
2013-9-25,66,54,42,55,49,43,100,84,50,30.08,30.06,30.03,10,10,7,8,4,,0.00,0,,98
2013-9-26,65,54,43,57,50,44,100,87,51,30.16,30.13,30.06,10,10,7,9,5,,0.00,0,,101
2013-9-27,75,60,45,56,51,45,97,75,42,30.25,30.20,30.16,10,10,10,7,4,,0.00,0,,139
2013-9-28,76,64,53,56,53,51,97,69,45,30.18,30.06,29.86,10,10,10,17,8,22,0.00,1,,142
2013-9-29,70,58,47,62,50,44,100,76,49,30.06,30.00,29.86,10,9,3,18,9,26,0.00,3,Rain,285
2013-9-30,67,54,41,55,48,42,100,80,47,30.04,29.97,29.88,10,10,10,12,4,17,0.00,0,,158